Showing default

LES 6, 3431

Orbit data source: Space-Track

LES 6, 3431 is a payload satellite owned by SAMSO (US) in GEO that was launched on Thu, 26 Sep 1968 UTC via a TITAN IIIC launch vehicle from the Air Force Eastern Test Range (AFETR). Payload-class satellites include a variety of spacecraft equipped with specific instruments for various scientific and technological missions. These include communications satellites like Starlink; space stations such as the ISS; scientific satellites like the Hubble; Earth observation satellites from companies like Planet Labs, Umbra, and HawkEye 360; GPS; miniature CubeSats for education and research; and military/defense satellites.

Loading next visibility...
Identifier
3431, 1968-081D
Orbit
GEO
Country
Flag of USUS
Related business
Manufacturer
MIT-LL
Mission
Non-operational spacecraft
Bus & Motor
LES, Unknown motor
Mass
169 kg wet, ~149 kg dry
Launch date (UTC)
1968-09-26 (57 years ago)
Launch vehicle
TITAN IIIC
Launch site
Air Force Eastern Test Range (AFETR)
Object type
Payload
Rocket body
Debris
Shape & HBR
Unknown
Radar Cross Section
Large (>1 m²)

Expand to show TLE details & history
Last TLE update: 13 hours ago

TLE from 13 hours ago
0 LES 6
1 03431U 68081D   26070.61525031  .00000129  00000-0  00000-0 0  9994
2 03431   1.3730  34.8730 0010302 300.6559 266.5182  1.00283360119808
Epoch: 2026-03-11T14:45Z
TLE epoch observation values (Epoch: 2026-03-11T14:45:57.626Z)
Latitude
-0.60753°
Longitude
-148.82631°
Altitude
35,785.667 km
Speed
3.075 km/s
True Right ascension
16h 07m 45s
True Declination
0° 36' 25"
Sunlit
Object was in daylight at epoch
Visualization orbit readout
Latitude
Unknown
Longitude
Unknown
Altitude
Unknown
Speed
Unknown
Apparent Right ascension
Unknown
Apparent Declination
Unknown
Sunlit
N/A
Visualization observer readout
Local Sidereal Time
08:22:18
Azimuth
Unknown
Elevation
Unknown
Doppler factor
Unknown
Orbital elements
Apogee altitude
35,827.856 km
Perigee altitude
35,740.984 km
Semi-major axis
42,162.557 km
Eccentricity
0.00103
Inclination
1.373°
RAAN
34.873°
Arg. of periapsis
300.6559°
True anomaly
266.40037°
Mean anomaly
266.5182°
Eccentric anomaly
266.45929°
Mean motion
0.2507 °/min
Orbital period
1,435.98 mins
BSTAR
0
Loading maneuver chart data...
Computing Atmospheric mass density...

Documentation

Showing up to 5 results
|